sat.trackr.live / text

‹ back to catalog

STARLINK-30581

NORAD 58096 · 2023-160X

PAYLOAD ACTIVE UNKNOWN

§ Identity

Operator
Country
US
Launch date
2023-10-18
Launch site
AFETR
Launch vehicle
Mass (kg)
RCS (m²)

Purposes: comms

External: N2YO · Heavens-Above · Gunter

§ Orbital elements

Epoch: 2026-09-20T03:25:10.634880Z

Period
94.27 min
Inclination
43.0027°
Eccentricity
0.0001361
Mean motion
15.27579638 rev/d
Perigee alt
482.1 km
Apogee alt
484.0 km
Semi-major
6,861.2 km
B*
2.5017e-5
RAAN
59.8111°
Arg perigee
262.0579°
Mean anomaly
98.0118°
Rev number
16,268

§ Raw data

STARLINK-305811 58096U 23160X   26263.14248420  .00000426  00000+0  25017-4 0  99942 58096  43.0027  59.8111 0001361 262.0579  98.0118 15.27579638162686

JSON: /api/v1/satellites/58096 · /tle

For live sub-satellite position, see the globe view (requires WebGL).

§ Visibility from observer

Set your observer location to see the next 7 days of passes ≥ 10°. The values pass through the URL so the page stays shareable.

No JS? Fill the form by hand. The geolocation button needs JavaScript.